Starlink 35517

operational
NORAD ID: 66245 Int'l Des: 2025-245 Owner: SPXS Country: US Constellation: starlink
LEOCIRCULAR

Starlink 35517について

説明を読み込み中...

リアルタイム位置

3D地球を読み込み中...

次回通過

高度履歴

Altitude vs Time

uPlot chart will show altitude changes over time

軌道要素

1 66245C 25245L 25303.07548611 .00475160 00000+0 74883-3 0 3030
2 66245 53.1599 182.3409 0005000 303.7925 132.6335 16.02659213 17
Epoch: Oct 30, 2025 • Age: 27 hours

現在のステータス

高度 269.6 km
速度 7.75 km/s
衛星直下点 33.03°N, 124.35°W
打ち上げ日 Oct 29, 2025
運用期間 2 days
タイプ internet

技術仕様

分類 Payload
質量 575.00 kg
乾燥質量 530.00 kg
総質量 575.00 kg
長さ 0.30 m
直径 4.10 m
スパン 29.00 m
形状 Box + pan
製造者 SPXS
バスタイプ Starlink V2MO
フェーズステータス In Orbit
所有者/国 SPXS/US

大規模コンステレーション

Loading constellations...